Location: Writing-on-Stone Provincial Park
(49.0825°N, 111.6163°W)
Time: 09:24:23
(UTC-06:00)

Daily predictions for brighter satellites

Satellite Brightness Start Highest point End
(mag) Time Altitude Azimuth Time Altitude Azimuth Time Altitude Azimuth
Cosmos 2333 4.3 18:41:14 10° NNW 18:46:57 63° ENE 18:52:39 10° SE
USA 234 3.9 18:40:54 10° ENE 18:47:08 48° N 18:53:21 10° W
Cosmos 921 Rocket 3.1 18:47:25 10° NNW 18:51:54 90° WSW 18:56:16 10° SSE
Cosmos 2237 Rocket 3.0 18:47:35 10° NNW 18:52:39 31° NE 18:57:41 10° ESE
Cosmos 2221 3.3 18:48:55 10° SSE 18:52:43 30° E 18:56:32 10° NNE
Cosmos 2237 4.4 18:47:24 10° NNW 18:53:10 83° WSW 18:58:53 10° SSE
SPOT 3 Rocket 3.9 18:50:22 10° SE 18:55:16 43° ENE 19:00:12 10° N
Lacrosse 5 rocket 2.8 18:51:45 10° WNW 18:55:41 29° N 18:59:25 10° NE
Cosmos 1743 Rocket 4.0 18:54:57 10° NNW 18:59:20 69° W 19:03:44 10° S
CZ-2C R/B 3.7 18:54:57 10° NNE 18:59:25 58° ESE 19:03:48 10° S
H-2A R/B 4.5 18:57:37 10° E 18:59:57 15° ENE 19:02:18 10° NNE
SKYMED 2 4.3 18:56:41 10° NNE 19:00:35 31° E 19:04:27 10° SSE
Cosmos 2227 Rocket 3.8 19:02:01 10° SE 19:04:45 14° E 19:07:28 10° ENE
SL-16 R/B 3.5 19:01:35 10° N 19:05:51 21° NE 19:09:56 11° E
GP-B 3.1 19:03:01 10° N 19:07:29 80° E 19:11:56 10° S
Cosmos 158 Rocket 4.2 19:03:59 10° S 19:08:55 51° ESE 19:14:01 10° NNE
Cosmos 1300 4.1 19:07:22 10° SE 19:10:01 18° E 19:12:39 10° NE
Cosmos 2098 Rocket 4.2 19:05:20 10° SSE 19:10:05 39° E 19:15:56 10° NNE
Cosmos 2360 Rocket 3.6 19:06:43 10° NW 19:12:02 43° WSW 19:17:20 10° S
ATLAS 5 CENTAUR R/B 3.9 19:08:50 10° NW 19:12:31 18° N 19:16:29 10° NE
Cosmos 1842 Rocket 3.7 19:08:43 10° SSW 19:13:11 82° W 19:17:38 10° N
Cosmos 2218 Rocket 4.4 19:08:03 10° SSW 19:14:10 69° WNW 19:20:20 10° N
Abrixas 3.5 19:14:23 10° SSW 19:15:58 18° SSE 19:16:53 15° ESE
Cosmos 1727 Rocket 4.4 19:10:08 10° NNW 19:16:29 72° W 19:22:46 10° S
Cosmos 1980 4.0 19:12:13 10° NNW 19:17:39 45° NE 19:23:03 10° SE
Gbstr 26 Del rocket 4.3 19:13:26 10° WNW 19:18:01 51° SSW 19:23:39 10° SE
APEX 2.7 19:15:15 10° S 19:18:05 46° ESE 19:20:37 11° NE
Cosmos 1500 Rocket 4.4 19:14:47 10° NNW 19:19:03 55° W 19:23:15 10° S
ALOS 2.5 19:16:16 10° SE 19:20:45 48° ENE 19:25:16 10° N
Cosmos 1048 Rocket 4.1 19:16:34 10° S 19:21:32 54° ESE 19:26:32 10° NNE
FENGYUN 3A 3.7 19:20:52 10° SE 19:26:08 56° ENE 19:31:27 10° N
Envisat 4.5 19:28:02 15° ENE 19:29:21 17° NE 19:32:32 10° NNE
ERS-2 3.5 19:26:21 10° S 19:29:53 44° W 19:33:28 10° NNW
COSMOS 2428 3.2 19:24:25 10° NNW 19:30:04 65° WSW 19:35:41 10° SSE
Cosmos 2123 Rocket 4.2 19:25:06 10° N 19:31:08 47° ENE 19:37:09 10° SSE
BREEZE-M DEB (TANK) 2.1 19:30:36 10° SW 19:32:36 39° SSE 19:33:16 28° ESE
Cosmos 2333 Rocket 2.2 19:27:05 10° NNW 19:32:51 77° ENE 19:38:37 10° SSE
Cosmos 1726 2.3 19:31:12 10° S 19:34:45 47° E 19:38:19 10° NNE
Cosmos 2219 3.3 19:30:47 10° S 19:36:26 60° ESE 19:42:05 10° NE
NOSS 0 Rocket 3.9 19:30:49 10° NNW 19:37:01 77° ENE 19:43:11 10° SE
Sich 1 3.1 19:35:28 10° N 19:39:48 57° ENE 19:44:09 10° SSE
Cosmos 2297 Rocket 3.3 19:37:11 10° SSE 19:41:25 22° ESE 19:42:52 20° E
SL-8 R/B 3.7 19:38:33 10° WSW 19:43:23 80° S 19:46:19 24° E
EO 1 Del DPAF 3.4 19:41:23 10° NNE 19:45:15 78° WNW 19:49:06 10° SSW
HJ-1C 4.4 19:45:47 27° ENE 19:45:49 27° ENE 19:48:48 10° N
Cosmos 44 2.9 19:42:17 10° SW 19:46:37 88° WNW 19:50:27 13° NE
COSMO-SKYMED 1 2.5 19:44:25 10° NNE 19:48:48 89° WNW 19:53:09 10° SSW
NOAA 12 4.1 19:44:00 10° SSE 19:49:19 89° WSW 19:54:42 10° NNW
Cosmos 1331 Rocket 3.9 19:44:57 10° NNW 19:50:11 72° ENE 19:55:22 10° SSE
Thor Agena Rocket 3.9 19:45:30 10° NNE 19:50:15 39° E 19:54:57 10° SSE
Abrixas rocket 2.6 19:52:06 10° W 19:55:21 56° SSW 19:56:28 34° SE
Cosmos 2219 Rocket 2.7 19:52:33 10° NNW 19:58:05 62° WSW 20:03:37 10° SSE
Cosmos 1805 Rocket 4.0 19:54:02 10° NNW 19:58:24 64° W 20:02:45 10° S
Resurs 01 Rocket 2.7 19:58:53 25° NE 19:58:53 25° NE 20:02:11 10° N
CZ-4 R/B 4.2 19:56:23 10° SW 19:59:40 22° W 20:02:55 10° NW
Aureole 2 Rocket 4.1 19:56:59 10° NW 20:00:42 41° WSW 20:04:33 10° S
Cosmos 1666 Rocket 3.6 20:03:40 10° NNW 20:08:02 78° W 20:12:20 10° S
FREGAT/IRIS 2.4 20:10:10 70° SSE 20:10:28 85° ENE 20:13:28 10° NNW
Cosmos 1633 Rocket 3.0 20:07:14 10° N 20:11:42 86° W 20:16:08 10° S
FengYun 1-2 T 4.1 20:06:15 10° SSE 20:11:44 79° ENE 20:17:15 10° NNW
Cosmos 2228 Rocket 3.8 20:09:09 10° SSE 20:15:26 26° NE 20:17:45 10° NNE
Cosmos 1328 Rocket 3.6 20:10:29 10° S 20:14:44 50° E 20:18:58 10° NNE
DMSP B5D1-3 4.5 20:09:48 10° NNE 20:14:58 87° WNW 20:20:08 10° SSW
Cosmos 1933 Rocket 3.7 20:11:37 10° N 20:15:52 49° ENE 20:16:15 48° E
CZ-4C R/B 2.2 20:10:46 10° SW 20:16:08 83° NW 20:21:00 17° NE
Cosmos 1269 Rocket 4.5 20:14:21 10° SW 20:19:34 62° WNW 20:24:50 10° NNE
Cosmos 1302 Rocket 3.9 20:15:11 10° NNW 20:20:27 75° ENE 20:23:12 29° SSE
Iridium 4 Rocket 4.4 20:15:53 10° SSW 20:21:33 58° W 20:27:25 10° N
Meteor 2-2 Rocket 4.1 20:16:53 10° S 20:22:30 70° E 20:28:07 10° NNE
Cosmos 44 Rocket 4.1 20:24:03 10° WSW 20:28:35 47° NW 20:31:42 19° NNE
USA 234 3.8 20:26:41 31° ENE 20:29:30 48° N 20:35:44 10° WNW
Cosmos 2221 4.5 20:26:25 10° SW 20:30:15 30° WNW 20:34:09 10° N
Cosmos 494 Rocket 3.8 20:26:15 10° SSW 20:31:21 77° ESE 20:35:02 19° NNE
Spot 2 Rocket 3.7 20:32:42 47° ENE 20:32:42 47° ENE 20:37:22 10° N
Meteor 1-27 4.3 20:27:16 10° S 20:32:48 53° E 20:38:27 10° NNE
SJ-6B 2.7 20:32:20 62° S 20:32:53 78° WSW 20:36:39 10° NNW
H-2A R/B 3.3 20:30:41 15° S 20:33:46 60° W 20:37:41 10° NNW
Lacrosse 5 rocket 2.4 20:31:51 10° NW 20:35:43 34° NNE 20:35:43 34° NNE
Cosmos 2237 Rocket 2.8 20:31:27 10° NW 20:37:03 57° WSW 20:42:12 12° S
Cosmos 1300 4.0 20:41:49 10° SW 20:45:26 39° WNW 20:49:04 10° N
Cosmos 1934 Rocket 4.5 20:39:24 10° SSW 20:45:42 62° WNW 20:52:02 10° N
Cosmos 2227 Rocket 2.0 20:42:12 10° SSW 20:47:51 80° ESE 20:49:59 40° NE
Cosmos 1892 3.7 20:44:30 10° NNW 20:47:06 41° NNW 20:47:06 41° NNW
BREEZE M DEB (TANK) 4.4 20:32:54 10° WNW 20:49:33 62° SW 20:51:22 42° SSE
USA 32 4.1 20:45:30 10° N 20:50:45 76° W 20:54:29 20° S
SL-16 R/B 2.1 20:45:07 10° NNW 20:50:51 85° ENE 20:51:50 62° SE
Cosmos 1603 4.5 20:46:05 10° NNW 20:50:37 36° NNE 20:50:37 36° NNE
MOS 1-B Rocket 4.0 20:53:43 30° S 20:56:47 82° WSW 21:03:18 10° NNW
ATLAS 5 CENTAUR R/B 3.3 20:53:57 10° NNW 20:58:45 31° NNE 20:58:45 31° NNE
H-2A R/B 4.4 21:04:10 12° NNE 21:04:10 12° NNE 21:04:52 10° NNE
Envisat 3.1 21:08:15 72° NNW 21:08:15 72° NNW 21:12:51 10° NNW
Cosmos 2251 Rocket 3.8 21:09:11 10° SSW 21:14:28 67° WNW 21:15:23 56° NNW
Meteor 2-3 Rocket 4.3 21:09:39 10° NNW 21:15:16 55° W 21:18:04 28° SSW
Cosmos 2297 Rocket 2.4 21:19:19 10° SW 21:24:46 68° WNW 21:24:46 68° WNW
Resurs 01 Rocket 3.4 21:36:28 29° NW 21:36:28 29° NW 21:39:03 10° NNW
Cosmos 2082 4.2 21:30:57 10° SW 21:36:10 57° WNW 21:36:10 57° WNW
CZ-4C R/B 3.9 22:00:36 10° W 22:05:36 30° NNW 22:06:12 29° N
USA 234 3.9 22:14:02 51° NW 22:14:02 51° NW 22:18:45 10° NW
Cosmos 2227 Rocket 4.2 22:28:03 10° W 22:31:54 23° NW 22:31:54 23° NW
ATLAS 5 CENTAUR R/B 4.4 22:38:26 10° NW 22:40:17 22° NW 22:40:17 22° NW
